CDT,Max TemperatureF,Mean TemperatureF,Min TemperatureF,Max Dew PointF,MeanDew PointF,Min DewpointF,Max Humidity, Mean Humidity, Min Humidity, Max Sea Level PressureIn, Mean Sea Level PressureIn, Min Sea Level PressureIn, Max VisibilityMiles, Mean VisibilityMiles, Min VisibilityMiles, Max Wind SpeedMPH, Mean Wind SpeedMPH, Max Gust SpeedMPH,PrecipitationIn, CloudCover, Events, WindDirDegrees
2013-6-1,61,54,46,56,47,43,93,80,66,30.09,29.85,29.56,10,9,4,30,20,37,T,7,Rain,358
2013-6-2,66,54,41,44,41,36,93,64,34,30.14,30.09,30.03,10,10,10,12,6,16,0.00,0,,334
2013-6-3,64,55,45,47,41,38,80,60,39,30.06,30.01,29.95,10,10,10,17,8,22,0.01,4,Rain,90
2013-6-4,60,57,53,55,51,45,93,78,62,29.98,29.94,29.91,10,9,1,24,15,30,0.46,8,Rain,108
2013-6-5,63,59,54,52,52,50,86,77,67,30.08,30.00,29.93,10,10,3,18,11,23,0.03,8,Rain,73
2013-6-6,70,61,52,50,47,44,89,67,45,30.08,30.05,30.02,10,10,10,16,8,22,0.00,5,,81
2013-6-7,74,63,52,53,49,47,83,62,41,30.04,29.95,29.85,10,10,6,22,10,25,0.09,3,Rain,159
2013-6-8,74,65,55,53,51,48,83,64,44,29.86,29.83,29.81,10,10,10,22,13,29,0.00,3,,140
2013-6-9,65,58,51,58,55,51,93,80,67,29.87,29.85,29.84,10,8,2,15,7,18,0.44,7,Rain,69
2013-6-10,75,62,49,60,54,47,100,79,57,29.85,29.82,29.76,10,6,0,15,7,18,0.05,2,Fog-Rain,162
2013-6-11,82,69,56,60,50,42,87,56,24,29.93,29.87,29.81,10,10,10,14,6,24,0.00,1,,23
2013-6-12,77,66,55,57,52,47,78,60,41,30.06,29.93,29.84,10,10,10,22,9,32,0.01,3,Rain,350
2013-6-13,81,66,50,54,50,47,83,58,33,30.13,30.08,29.99,10,10,6,14,6,20,0.00,0,,52
2013-6-14,85,75,64,61,56,52,68,54,40,30.01,29.86,29.75,10,10,10,40,14,47,T,3,,147
2013-6-15,84,70,56,60,49,40,86,54,22,29.91,29.85,29.79,10,10,10,26,10,36,T,0,,261
2013-6-16,88,72,55,51,46,41,72,47,21,29.88,29.84,29.80,10,10,10,31,14,39,0.00,1,,267
2013-6-17,81,70,59,55,53,49,72,56,40,30.03,29.95,29.88,10,10,10,23,10,26,T,4,,334
2013-6-18,81,70,58,55,51,47,80,56,32,30.11,30.03,29.94,10,10,10,14,6,18,0.00,1,,126
2013-6-19,89,77,64,57,54,51,68,49,29,29.96,29.90,29.83,10,10,10,15,10,22,0.00,1,,154
2013-6-20,84,74,64,67,62,57,87,71,54,29.91,29.85,29.80,10,8,1,35,14,45,1.70,5,Rain,105
2013-6-21,80,71,62,67,63,59,93,76,58,30.02,29.89,29.78,10,10,3,32,5,39,0.06,1,Rain,23
2013-6-22,82,74,66,66,64,63,93,74,55,29.90,29.86,29.76,10,9,5,17,10,23,0.00,2,,139
2013-6-23,79,71,62,65,62,55,93,69,45,29.82,29.68,29.62,10,7,1,25,10,32,0.92,6,Rain,208
2013-6-24,84,72,60,66,60,54,79,61,43,29.82,29.78,29.73,10,10,10,16,9,22,0.00,0,,168
2013-6-25,88,77,66,72,67,62,90,75,59,29.74,29.68,29.60,10,7,0,36,14,47,2.56,5,Fog-Rain,154
2013-6-26,87,76,64,70,64,60,93,67,40,29.78,29.69,29.57,10,8,1,38,8,49,1.40,5,Rain,278
2013-6-27,86,77,67,63,58,53,73,53,32,29.86,29.82,29.78,10,10,10,23,14,37,0.00,0,,294
2013-6-28,82,74,65,59,57,55,78,60,42,29.92,29.90,29.86,10,10,10,29,18,37,0.00,0,,327
2013-6-29,83,73,62,61,58,54,90,64,37,30.03,29.98,29.92,10,10,10,18,11,23,0.00,2,,356
2013-6-30,85,72,59,60,55,49,90,61,31,30.16,30.12,30.04,10,9,7,12,4,15,0.00,0,,4